THY6805 LTAC-LTCB

Flight info

Callsign THY6805
Flight time 0h 50m
Altitude 29000
Route LTAC/21R N0443F290 EKME1D EKMEK UW71 CRM UM11 TERME TERM1F LTCB/10
Aircraft B738/M-CDT/C

Departure

Time 2026-04-26 13:26
Airport Esenboğa International Airport (LTAC)

Arrival

Time 2026-04-26 14:17
Airport Ordu–Giresun Airport (LTCB)
Time Latitude Longitude Altitude Speed Heading
2026-04-26 13:13 40.12914 33.00329 3125 ft 0 kts 126°
2026-04-26 13:22 40.12914 33.00331 3122 ft 0 kts 117°
2026-04-26 13:22 40.12916 33.00335 3122 ft 1 kts 76°
2026-04-26 13:22 40.12921 33.00335 3122 ft 1 kts 10°
2026-04-26 13:23 40.12949 33.00337 3124 ft 7 kts
2026-04-26 13:23 40.13017 33.00330 3125 ft 13 kts 354°
2026-04-26 13:23 40.13122 33.00328 3124 ft 17 kts
2026-04-26 13:23 40.13245 33.00382 3126 ft 21 kts 34°
2026-04-26 13:24 40.13379 33.00507 3129 ft 26 kts 36°
2026-04-26 13:24 40.13530 33.00649 3131 ft 26 kts 36°
2026-04-26 13:24 40.13674 33.00785 3132 ft 25 kts 36°
2026-04-26 13:24 40.13809 33.00914 3133 ft 23 kts 37°
2026-04-26 13:25 40.13934 33.01038 3134 ft 22 kts 36°
2026-04-26 13:25 40.14076 33.01038 3135 ft 22 kts 319°
2026-04-26 13:25 40.14072 33.00866 3135 ft 21 kts 221°
2026-04-26 13:25 40.13861 33.00664 3133 ft 69 kts 216°
2026-04-26 13:26 40.13298 33.00122 3127 ft 130 kts 217°
2026-04-26 13:26 40.12456 32.99255 3235 ft 170 kts 221°
2026-04-26 13:26 40.11514 32.98275 3908 ft 175 kts 219°
2026-04-26 13:26 40.10504 32.97297 4457 ft 182 kts 217°
2026-04-26 13:27 40.09461 32.96329 4872 ft 185 kts 219°
2026-04-26 13:27 40.08401 32.95327 5226 ft 190 kts 218°
2026-04-26 13:27 40.07330 32.94304 5599 ft 190 kts 218°
2026-04-26 13:27 40.06271 32.93284 6030 ft 189 kts 217°
2026-04-26 13:28 40.05212 32.92257 6443 ft 190 kts 219°
2026-04-26 13:28 40.04130 32.91200 6878 ft 199 kts 219°
2026-04-26 13:28 40.02999 32.90098 7307 ft 207 kts 220°
2026-04-26 13:28 40.01686 32.89227 7706 ft 221 kts 195°
2026-04-26 13:29 40.00121 32.89155 8148 ft 232 kts 174°
2026-04-26 13:29 39.99072 32.89516 8433 ft 239 kts 161°
2026-04-26 13:29 39.97110 32.91036 8951 ft 256 kts 147°
2026-04-26 13:29 39.95615 32.92421 9333 ft 272 kts 147°
2026-04-26 13:30 39.94017 32.93892 9722 ft 290 kts 147°
2026-04-26 13:30 39.92333 32.95420 10108 ft 297 kts 147°
2026-04-26 13:30 39.90614 32.96907 10467 ft 298 kts 155°
2026-04-26 13:30 39.88616 32.97759 10682 ft 313 kts 175°
2026-04-26 13:31 39.86368 32.97842 10876 ft 335 kts 178°
2026-04-26 13:31 39.84042 32.98669 11075 ft 361 kts 154°
2026-04-26 13:31 39.82028 33.00689 11618 ft 372 kts 132°
2026-04-26 13:31 39.80673 33.03558 12411 ft 375 kts 111°
2026-04-26 13:32 39.80206 33.06904 13126 ft 379 kts 89°
2026-04-26 13:32 39.80601 33.10263 13768 ft 384 kts 77°
2026-04-26 13:32 39.81415 33.13607 14567 ft 381 kts 65°
2026-04-26 13:32 39.82686 33.16556 15338 ft 379 kts 54°
2026-04-26 13:33 39.84365 33.19217 15945 ft 382 kts 43°
2026-04-26 13:33 39.86345 33.21532 16571 ft 384 kts 39°
2026-04-26 13:33 39.88389 33.23803 17202 ft 388 kts 38°
2026-04-26 13:33 39.90461 33.26078 17820 ft 392 kts 38°
2026-04-26 13:34 39.92551 33.28381 18418 ft 395 kts 39°
2026-04-26 13:34 39.94651 33.30712 18953 ft 398 kts 39°
2026-04-26 13:34 39.96763 33.33074 19506 ft 401 kts 39°
2026-04-26 13:34 39.98162 33.34646 19865 ft 402 kts 39°
2026-04-26 13:35 40.01009 33.37857 20569 ft 406 kts 39°
2026-04-26 13:35 40.03156 33.40285 21058 ft 410 kts 39°
2026-04-26 13:35 40.05294 33.42707 21573 ft 412 kts 40°
2026-04-26 13:35 40.07497 33.45204 22082 ft 416 kts 39°
2026-04-26 13:36 40.09661 33.47661 22571 ft 418 kts 39°
2026-04-26 13:36 40.11861 33.50161 23090 ft 421 kts 40°
2026-04-26 13:36 40.14077 33.52681 23544 ft 424 kts 40°
2026-04-26 13:36 40.16309 33.55221 23961 ft 426 kts 40°
2026-04-26 13:37 40.18545 33.57768 24441 ft 426 kts 40°
2026-04-26 13:37 40.20782 33.60316 24842 ft 428 kts 40°
2026-04-26 13:37 40.23025 33.62875 25260 ft 429 kts 40°
2026-04-26 13:37 40.25281 33.65451 25700 ft 430 kts 40°
2026-04-26 13:38 40.27540 33.68034 26122 ft 431 kts 40°
2026-04-26 13:38 40.29796 33.70615 26539 ft 432 kts 40°
2026-04-26 13:38 40.32071 33.73221 26924 ft 434 kts 40°
2026-04-26 13:38 40.34317 33.75794 27297 ft 435 kts 40°
2026-04-26 13:39 40.36598 33.78410 27633 ft 437 kts 40°
2026-04-26 13:39 40.38896 33.81049 27957 ft 440 kts 40°
2026-04-26 13:39 40.41202 33.83701 28295 ft 442 kts 40°
2026-04-26 13:39 40.43513 33.86359 28698 ft 441 kts 40°
2026-04-26 13:40 40.45821 33.89015 28942 ft 442 kts 40°
2026-04-26 13:40 40.49457 33.93744 28940 ft 445 kts 51°
2026-04-26 13:41 40.52525 34.00761 28947 ft 441 kts 66°
2026-04-26 13:41 40.54786 34.08274 28945 ft 443 kts 68°
2026-04-26 13:42 40.57029 34.15807 28942 ft 445 kts 67°
2026-04-26 13:42 40.59320 34.23374 28942 ft 446 kts 67°
2026-04-26 13:43 40.61631 34.30956 28944 ft 446 kts 67°
2026-04-26 13:43 40.63940 34.38546 28938 ft 446 kts 67°
2026-04-26 13:44 40.66238 34.46124 28938 ft 445 kts 67°
2026-04-26 13:44 40.68529 34.53705 28942 ft 445 kts 67°
2026-04-26 13:45 40.70793 34.61217 28939 ft 444 kts 67°
2026-04-26 13:45 40.73071 34.68792 28939 ft 444 kts 67°
2026-04-26 13:46 40.75340 34.76374 28932 ft 444 kts 68°
2026-04-26 13:46 40.77583 34.83959 28937 ft 444 kts 68°
2026-04-26 13:47 40.79818 34.91555 28934 ft 444 kts 68°
2026-04-26 13:47 40.82053 34.99164 28933 ft 444 kts 68°
2026-04-26 13:48 40.84284 35.06774 28935 ft 445 kts 68°
2026-04-26 13:48 40.86513 35.14405 28927 ft 445 kts 68°
2026-04-26 13:49 40.88727 35.22004 28924 ft 446 kts 68°
2026-04-26 13:49 40.90950 35.29656 28922 ft 447 kts 68°
2026-04-26 13:50 40.93177 35.37344 28916 ft 448 kts 68°
2026-04-26 13:50 40.94291 35.41198 28761 ft 450 kts 69°
2026-04-26 13:50 40.95409 35.45070 28313 ft 450 kts 69°
2026-04-26 13:50 40.96525 35.48937 27917 ft 448 kts 69°
2026-04-26 13:51 40.97633 35.52773 27515 ft 445 kts 69°
2026-04-26 13:51 40.98731 35.56578 27119 ft 440 kts 69°
2026-04-26 13:51 40.99814 35.60342 26735 ft 435 kts 69°
2026-04-26 13:51 41.00885 35.64062 26352 ft 432 kts 69°
2026-04-26 13:52 41.01951 35.67777 25981 ft 429 kts 69°
2026-04-26 13:52 41.02997 35.71401 25617 ft 427 kts 69°
2026-04-26 13:52 41.04071 35.75064 25251 ft 425 kts 69°
2026-04-26 13:52 41.05147 35.78713 24900 ft 426 kts 69°
2026-04-26 13:53 41.06224 35.82374 24553 ft 428 kts 69°
2026-04-26 13:53 41.07305 35.86062 24202 ft 427 kts 69°
2026-04-26 13:53 41.08378 35.89730 23849 ft 425 kts 69°
2026-04-26 13:53 41.09441 35.93376 23509 ft 423 kts 69°
2026-04-26 13:54 41.10478 35.97006 23099 ft 421 kts 70°
2026-04-26 13:54 41.11501 36.00638 22697 ft 419 kts 70°
2026-04-26 13:54 41.12511 36.04248 22305 ft 417 kts 70°
2026-04-26 13:55 41.14515 36.11415 21517 ft 413 kts 70°
2026-04-26 13:55 41.15175 36.13774 21272 ft 412 kts 70°
2026-04-26 13:55 41.17494 36.22074 20383 ft 407 kts 70°
2026-04-26 13:56 41.18474 36.25586 20000 ft 405 kts 70°
2026-04-26 13:56 41.19446 36.29074 19649 ft 403 kts 70°
2026-04-26 13:56 41.20420 36.32573 19280 ft 402 kts 69°
2026-04-26 13:56 41.21384 36.36040 18921 ft 400 kts 70°
2026-04-26 13:57 41.22344 36.39501 18568 ft 398 kts 70°
2026-04-26 13:57 41.23298 36.42945 18222 ft 397 kts 70°
2026-04-26 13:57 41.24249 36.46380 17824 ft 395 kts 70°
2026-04-26 13:57 41.25182 36.49756 17431 ft 394 kts 70°
2026-04-26 13:58 41.26007 36.53198 17028 ft 387 kts 78°
2026-04-26 13:58 41.26370 36.56680 16619 ft 373 kts 88°
2026-04-26 13:58 41.26291 36.60063 16230 ft 360 kts 96°
2026-04-26 13:58 41.26043 36.63326 15873 ft 350 kts 97°
2026-04-26 13:59 41.25785 36.66511 15486 ft 341 kts 97°
2026-04-26 13:59 41.25533 36.69608 15132 ft 332 kts 97°
2026-04-26 13:59 41.25293 36.72612 14809 ft 324 kts 97°
2026-04-26 14:00 41.24622 36.81251 13853 ft 302 kts 97°
2026-04-26 14:00 41.24412 36.83970 13519 ft 297 kts 97°
2026-04-26 14:00 41.24272 36.85802 13276 ft 293 kts 97°
2026-04-26 14:01 41.24001 36.89325 12839 ft 285 kts 97°
2026-04-26 14:01 41.23801 36.91915 12547 ft 279 kts 97°
2026-04-26 14:01 41.23605 36.94460 12266 ft 276 kts 97°
2026-04-26 14:01 41.23407 36.96997 11992 ft 275 kts 97°
2026-04-26 14:02 41.23211 36.99514 11714 ft 275 kts 97°
2026-04-26 14:02 41.23013 37.02052 11439 ft 274 kts 97°
2026-04-26 14:02 41.22817 37.04555 11163 ft 273 kts 97°
2026-04-26 14:02 41.22620 37.07072 10897 ft 273 kts 97°
2026-04-26 14:03 41.22423 37.09578 10627 ft 272 kts 98°
2026-04-26 14:03 41.22229 37.12045 10363 ft 271 kts 98°
2026-04-26 14:03 41.22033 37.14531 10105 ft 271 kts 98°
2026-04-26 14:03 41.21837 37.17016 9849 ft 270 kts 98°
2026-04-26 14:04 41.21640 37.19491 9572 ft 269 kts 98°
2026-04-26 14:04 41.21442 37.21966 9281 ft 269 kts 98°
2026-04-26 14:04 41.21255 37.24435 9005 ft 268 kts 97°
2026-04-26 14:04 41.21077 37.26902 8720 ft 268 kts 97°
2026-04-26 14:05 41.20902 37.29361 8452 ft 267 kts 97°
2026-04-26 14:05 41.20727 37.31800 8225 ft 264 kts 97°
2026-04-26 14:05 41.20553 37.34222 7994 ft 262 kts 97°
2026-04-26 14:05 41.20380 37.36612 7769 ft 260 kts 97°
2026-04-26 14:06 41.20207 37.38995 7543 ft 257 kts 97°
2026-04-26 14:06 41.20038 37.41319 7320 ft 255 kts 97°
2026-04-26 14:06 41.19867 37.43656 7101 ft 253 kts 97°
2026-04-26 14:06 41.19698 37.45967 6882 ft 251 kts 97°
2026-04-26 14:07 41.19528 37.48279 6657 ft 251 kts 97°
2026-04-26 14:07 41.19357 37.50579 6430 ft 250 kts 97°
2026-04-26 14:07 41.19188 37.52868 6228 ft 249 kts 97°
2026-04-26 14:07 41.18959 37.55139 5989 ft 247 kts 110°
2026-04-26 14:08 41.18137 37.57090 5777 ft 241 kts 128°
2026-04-26 14:08 41.17159 37.58893 5546 ft 240 kts 128°
2026-04-26 14:08 41.16180 37.60692 5320 ft 240 kts 128°
2026-04-26 14:08 41.15207 37.62483 5102 ft 239 kts 127°
2026-04-26 14:09 41.14236 37.64276 4871 ft 239 kts 127°
2026-04-26 14:09 41.13270 37.66060 4670 ft 237 kts 127°
2026-04-26 14:09 41.12315 37.67826 4494 ft 235 kts 127°
2026-04-26 14:09 41.11367 37.69580 4318 ft 233 kts 127°
2026-04-26 14:10 41.10437 37.71301 4213 ft 228 kts 127°
2026-04-26 14:10 41.09514 37.73015 4057 ft 227 kts 126°
2026-04-26 14:10 41.08621 37.74669 3887 ft 221 kts 126°
2026-04-26 14:10 41.07732 37.76314 3700 ft 215 kts 126°
2026-04-26 14:11 41.06044 37.79433 3317 ft 200 kts 126°
2026-04-26 14:11 41.05256 37.80887 3121 ft 187 kts 125°
2026-04-26 14:11 41.04522 37.82243 2934 ft 175 kts 125°
2026-04-26 14:12 41.03831 37.83518 2840 ft 163 kts 125°
2026-04-26 14:12 41.03189 37.84705 2664 ft 156 kts 125°
2026-04-26 14:12 41.02565 37.85854 2499 ft 153 kts 124°
2026-04-26 14:12 41.01945 37.86997 2378 ft 153 kts 124°
2026-04-26 14:13 41.00701 37.89289 2053 ft 152 kts 124°
2026-04-26 14:13 41.00084 37.90426 1869 ft 152 kts 124°
2026-04-26 14:13 40.99484 37.91537 1696 ft 149 kts 123°
2026-04-26 14:14 40.99176 37.92837 1518 ft 146 kts 98°
2026-04-26 14:14 40.98981 37.94162 1340 ft 147 kts 101°
2026-04-26 14:14 40.98773 37.95462 1164 ft 145 kts 102°
2026-04-26 14:14 40.98564 37.96764 989 ft 144 kts 102°
2026-04-26 14:15 40.98359 37.98054 813 ft 142 kts 101°
2026-04-26 14:15 40.98157 37.99322 668 ft 139 kts 102°
2026-04-26 14:15 40.97958 38.00579 582 ft 140 kts 101°
2026-04-26 14:15 40.97758 38.01840 467 ft 139 kts 101°
2026-04-26 14:16 40.97559 38.03092 371 ft 139 kts 101°
2026-04-26 14:16 40.97362 38.04322 251 ft 139 kts 101°
2026-04-26 14:16 40.97163 38.05577 134 ft 140 kts 101°
2026-04-26 14:16 40.96961 38.06848 29 ft 140 kts 101°
2026-04-26 14:17 40.96809 38.07884 23 ft 54 kts 103°
2026-04-26 14:17 40.96776 38.08051 22 ft 9 kts 116°
2026-04-26 14:17 40.96728 38.08098 21 ft 9 kts 173°
2026-04-26 14:17 40.96664 38.08090 21 ft 9 kts 187°
2026-04-26 14:18 40.96601 38.08076 19 ft 9 kts 193°
2026-04-26 14:18 40.96543 38.08048 19 ft 9 kts 204°
2026-04-26 14:18 40.96505 38.08028 19 ft 5 kts 199°
2026-04-26 14:18 40.96479 38.08020 19 ft 2 kts 188°
2026-04-26 14:19 40.96477 38.08020 19 ft 0 kts 188°